This is the latest recevied weather packets stored in our database for station/object G8SIB-9. If no packets are shown the sender has not sent any weather packets the latest 10 day(s).
| Time | Temp. | Humidity | Pressure | Rain* | Wind** | Luminosity | Snow |
|---|---|---|---|---|---|---|---|
| 1777825936 | 20.56° C | 50% | 1005.6 hPa | 0 mm | - | - | - |
| 1777825336 | 20° C | 50% | 1005.7 hPa | 0 mm | - | - | - |
| 1777824735 | 20.56° C | 49% | 1005.6 hPa | 0 mm | - | - | - |
| 1777824134 | 20.56° C | 51% | 1005.6 hPa | 0 mm | - | - | - |
| 1777823534 | 20.56° C | 50% | 1005.5 hPa | 0 mm | - | - | - |
| 1777822932 | 21.11° C | 48% | 1005.5 hPa | 0 mm | - | - | - |
| 1777822331 | 21.67° C | 48% | 1005.4 hPa | 0 mm | - | - | - |
| 1777821731 | 20.56° C | 49% | 1005.6 hPa | 0 mm | - | - | - |
| 1777821130 | 21.67° C | 46% | 1005.6 hPa | 0 mm | - | - | - |
| 1777820529 | 21.67° C | 47% | 1005.5 hPa | 0 mm | - | - | - |
| 1777819929 | 21.67° C | 47% | 1005.6 hPa | 0 mm | - | - | - |
| 1777819328 | 21.67° C | 46% | 1005.6 hPa | 0 mm | - | - | - |
| 1777818728 | 22.22° C | 45% | 1005.7 hPa | 0 mm | - | - | - |
| 1777818127 | 21.67° C | 46% | 1005.7 hPa | 0 mm | - | - | - |
| 1777817526 | 22.22° C | 45% | 1005.6 hPa | 0 mm | - | - | - |
| 1777816926 | 21.67° C | 45% | 1005.6 hPa | 0 mm | - | - | - |
| 1777816325 | 22.22° C | 46% | 1005.6 hPa | 0 mm | - | - | - |
| 1777815724 | 22.22° C | 45% | 1005.7 hPa | 0 mm | - | - | - |
| 1777815124 | 22.78° C | 44% | 1005.8 hPa | 0 mm | - | - | - |
| 1777814523 | 21.67° C | 47% | 1005.9 hPa | 0 mm | - | - | - |
| 1777813923 | 22.22° C | 49% | 1005.9 hPa | 0 mm | - | - | - |
| 1777813322 | 21.11° C | 48% | 1006 hPa | 0 mm | - | - | - |
| 1777812722 | 21.67° C | 48% | 1005.9 hPa | 0 mm | - | - | - |
| 1777812120 | 21.11° C | 49% | 1006 hPa | 0 mm | - | - | - |
| 1777811519 | 21.11° C | 48% | 1005.9 hPa | 0 mm | - | - | - |
* Rain latest hour (hover to see other rain measurements)
** Current wind speed in m/s (hover to see current wind gust speed)